EA5CBT-13 Weather Reports


time (UTC)temp
C
wind
direction
speed
KPH
gust
KPH
rain 1hr
cm
rain 24hr
cm
rain mn
cm
humidity
%
barometer
mb
20260510211518 18 315 1.6 4.8 0.00 0.00 0.00 69 1010.2
20260510210611 18 277 1.6 4.8 0.00 0.00 0.00 70 1010.2
20260510205604 18 261 6.4 9.7 0.00 0.00 0.00 70 1010.0
20260510204617 18 299 3.2 6.4 0.00 0.00 0.00 70 1010.0
20260510203546 18 248 6.4 12.9 0.00 0.00 0.00 70 1010.0
20260510202539 18 228 8.0 19.3 0.00 0.00 0.00 70 1009.7
20260510201530 18 250 6.4 12.9 0.00 0.00 0.00 67 1009.8
20260510200544 18 270 3.2 3.2 0.00 0.00 0.00 65 1009.4
20260510195615 18 229 4.8 9.7 0.00 0.00 0.00 64 1009.4
20260510194608 19 234 3.2 6.4 0.00 0.00 0.00 62 1009.5
20260510193558 20 225 3.2 4.8 0.00 0.00 0.00 60 1009.3
20260510192550 20 236 4.8 9.7 0.00 0.00 0.00 60 1009.4
20260510191602 20 232 8.0 11.3 0.00 0.00 0.00 60 1009.2
20260510190534 20 235 8.0 14.5 0.00 0.00 0.00 60 1009.2
20260510185526 20 220 8.0 16.1 0.00 0.00 0.00 59 1009.0
20260510184518 20 201 8.0 16.1 0.00 0.00 0.00 57 1009.3
20260510183611 20 211 8.0 12.9 0.00 0.00 0.00 59 1009.2
20260510182603 21 219 11.3 17.7 0.00 0.00 0.00 56 1008.9
20260510181554 21 220 12.9 19.3 0.00 0.00 0.00 54 1008.9
20260510180547 21 158 9.7 17.7 0.00 0.00 0.00 54 1009.0
20260510175539 21 210 11.3 16.1 0.00 0.00 0.00 53 1009.0
20260510174530 22 210 12.9 19.3 0.00 0.00 0.00 52 1009.2
20260510173522 22 206 11.3 22.5 0.00 0.00 0.00 49 1009.2
20260510172615 22 225 11.3 22.5 0.00 0.00 0.00 46 1009.2
20260510171607 22 193 9.7 17.7 0.00 0.00 0.00 45 1009.0
20260510170559 23 210 12.9 24.1 0.00 0.00 0.00 45 1008.8
20260510165551 23 228 14.5 25.7 0.00 0.00 0.00 45 1008.9
20260510164603 23 187 11.3 20.9 0.00 0.00 0.00 44 1008.9
20260510163535 23 210 12.9 24.1 0.00 0.00 0.00 45 1009.0
20260510162547 23 229 12.9 20.9 0.00 0.00 0.00 46 1009.0
20260510161519 23 211 14.5 24.1 0.00 0.00 0.00 44 1009.1
20260510160611 23 225 17.7 24.1 0.00 0.00 0.00 42 1009.0
20260510155645 23 225 14.5 25.7 0.00 0.00 0.00 41 1009.1
20260510154555 24 219 14.5 25.7 0.00 0.00 0.00 42 1009.0
20260510153547 24 221 14.5 22.5 0.00 0.00 0.00 42 1009.1
20260510152539 23 213 14.5 27.4 0.00 0.00 0.00 43 1009.2
20260510151552 23 217 17.7 30.6 0.00 0.00 0.00 42 1009.3
20260510150523 24 171 12.9 24.1 0.00 0.00 0.00 42 1009.5
20260510145515 24 201 12.9 24.1 0.00 0.00 0.00 41 1009.3
20260510144608 24 231 12.9 24.1 0.00 0.00 0.00 41 1009.6
20260510143600 24 218 14.5 24.1 0.00 0.00 0.00 41 1009.5
20260510142552 24 225 16.1 25.7 0.00 0.00 0.00 41 1009.7
20260510141545 24 206 17.7 30.6 0.00 0.00 0.00 41 1009.8
20260510140536 24 225 16.1 19.3 0.00 0.00 0.00 41 1009.8
20260510135528 24 210 14.5 27.4 0.00 0.00 0.00 40 1010.0
20260510134520 25 230 12.9 19.3 0.00 0.00 0.00 42 1010.0
20260510133612 25 201 14.5 19.3 0.00 0.00 0.00 42 1010.0
20260510132625 24 187 14.5 24.1 0.00 0.00 0.00 42 1010.2
20260510131617 25 226 14.5 24.1 0.00 0.00 0.00 44 1010.4
20260510130549 25 225 12.9 22.5 0.00 0.00 0.00 44 1010.5
20260510125541 24 227 17.7 32.2 0.00 0.00 0.00 42 1010.6
20260510124532 23 236 14.5 33.8 0.00 0.00 0.00 46 1010.7
20260510123526 23 214 16.1 29.0 0.00 0.00 0.00 47 1010.7
20260510122517 23 197 12.9 24.1 0.00 0.00 0.00 50 1011.0
20260510121610 23 206 12.9 22.5 0.00 0.00 0.00 51 1011.2
20260510120602 24 270 14.5 17.7 0.00 0.00 0.00 51 1011.2
20260510115614 24 220 12.9 19.3 0.00 0.00 0.00 51 1011.3
20260510114547 24 216 11.3 16.1 0.00 0.00 0.00 50 1011.2
20260510113538 24 205 11.3 22.5 0.00 0.00 0.00 51 1011.4
20260510112530 23 178 4.8 11.3 0.00 0.00 0.00 62 1011.5
20260510111543 22 163 6.4 11.3 0.00 0.03 0.00 66 1011.8
20260510110656 22 143 8.0 14.5 0.00 0.03 0.00 65 1012.0
20260510105607 22 107 6.4 9.7 0.00 0.03 0.00 64 1012.2
20260510104600 22 155 6.4 9.7 0.00 0.05 0.00 68 1012.3
20260510103551 22 174 8.0 11.3 0.00 0.05 0.00 63 1012.3
20260510102543 23 138 6.4 14.5 0.00 0.05 0.00 62 1012.2
20260510101536 22 102 4.8 8.0 0.00 0.05 0.00 62 1012.3
20260510100527 22 135 4.8 6.4 0.00 0.05 0.00 62 1012.2
20260510095520 22 128 4.8 8.0 0.00 0.05 0.00 61 1012.3
20260510094655 23 144 6.4 9.7 0.00 0.05 0.00 61 1012.1
20260510093605 23 114 6.4 8.0 0.00 0.10 0.00 61 1012.2
20260510092558 23 130 4.8 8.0 0.00 0.13 0.00 60 1012.2
20260510091549 23 124 4.8 9.7 0.00 0.13 0.00 60 1012.1
20260510090542 23 74 4.8 6.4 0.00 0.18 0.00 57 1012.1
20260510085533 26 79 4.8 9.7 0.00 0.30 0.00 51 1012.3
20260510084525 26 0 1.6 3.2 0.00 0.46 0.00 51 1012.3
20260510083519 26 270 0.0 3.2 0.00 0.53 0.00 53 1012.2
20260510082610 25 248 0.0 3.2 0.00 0.61 0.00 55 1012.4
20260510081602 25 229 3.2 6.4 0.00 0.79 0.00 54 1012.4
20260510080555 24 270 3.2 4.8 0.00 0.79 0.00 56 1012.4
20260510075546 24 88 1.6 3.2 0.00 0.79 0.00 55 1012.5
20260510074538 25 90 1.6 3.2 0.00 0.79 0.00 57 1012.5
20260510073531 23 80 1.6 4.8 0.00 0.79 0.00 59 1012.7
20260510072543 23 0 0.0 3.2 0.00 0.79 0.00 60 1012.7
20260510071616 22 0 0.0 3.2 0.00 0.79 0.00 66 1012.5
20260510070609 21 0 0.0 3.2 0.00 0.79 0.00 64 1012.5
20260510065559 20 0 0.0 3.2 0.00 0.86 0.00 67 1012.3
20260510064552 20 353 3.2 6.4 0.00 0.97 0.00 68 1012.4
20260510063544 19 315 0.0 3.2 0.00 0.97 0.00 80 1012.1
20260510062536 16 0.0 1.6 0.00 0.97 0.00 84 1012.1
20260510061528 16 315 1.6 3.2 0.00 0.97 0.00 90 1012.1
20260510060520 15 315 1.6 3.2 0.00 0.97 0.00 91 1012.1
20260510055614 14 315 1.6 3.2 0.00 0.99 0.00 91 1011.9
20260510054625 13 315 0.0 3.2 0.00 1.04 0.00 91 1011.9
20260510053557 13 0.0 0.0 0.00 1.04 0.00 91 1011.9
20260510052550 13 0.0 0.0 0.00 1.04 0.00 91 1011.8
20260510051543 13 315 0.0 3.2 0.00 1.04 0.00 90 1011.7
20260510050617 13 0.0 0.0 0.00 1.04 0.00 90 1011.8
20260510045526 13 0.0 1.6 0.00 1.09 0.00 90 1011.8
20260510044518 13 0.0 0.0 0.00 1.09 0.00 90 1011.8
20260510043611 13 315 0.0 3.2 0.00 1.09 0.00 90 1011.8
20260510042603 13 315 1.6 3.2 0.00 1.09 0.00 91 1011.6
20260510041556 13 315 1.6 3.2 0.00 1.09 0.00 90 1011.4
20260510040547 13 315 1.6 3.2 0.00 1.09 0.00 90 1011.5
20260510035540 14 315 1.6 3.2 0.00 1.09 0.00 90 1011.6
20260510034532 13 315 1.6 3.2 0.00 1.09 0.00 90 1011.6
20260510033526 13 315 0.0 3.2 0.00 1.09 0.00 90 1011.6
20260510032518 13 315 0.0 3.2 0.00 1.09 0.00 90 1011.6
20260510031631 13 315 0.0 3.2 0.00 1.09 0.00 89 1011.5
20260510030602 13 0.0 0.0 0.00 1.09 0.00 89 1011.4
20260510025554 14 315 0.0 3.2 0.00 1.09 0.00 89 1011.4
20260510024629 14 315 0.0 3.2 0.00 1.09 0.00 89 1011.4
20260510023539 14 315 1.6 4.8 0.00 1.09 0.00 89 1011.5
20260510022531 14 315 1.6 3.2 0.00 1.09 0.00 89 1011.4
20260510021523 14 315 0.0 3.2 0.00 1.09 0.00 89 1011.3
20260510020515 14 0.0 1.6 0.00 1.09 0.00 89 1011.2
20260510015608 14 315 1.6 3.2 0.00 1.09 0.00 88 1011.3
20260510014602 14 0.0 1.6 0.00 1.09 0.00 88 1011.3
20260510013552 14 315 0.0 3.2 0.00 1.09 0.00 88 1011.2
20260510012545 14 0.0 1.6 0.00 1.09 0.00 89 1011.2
20260510011538 14 0.0 1.6 0.00 1.09 0.00 89 1011.3
20260510010529 14 315 0.0 4.8 0.00 1.09 0.00 90 1011.3
20260510005543 14 315 1.6 3.2 0.00 1.09 0.00 90 1011.4
20260510004635 14 315 0.0 3.2 0.00 1.09 0.00 90 1011.5
20260510003607 14 315 0.0 3.2 0.00 1.09 0.00 90 1011.5
20260510002601 14 315 1.6 3.2 0.00 1.09 0.00 90 1011.5
20260510001552 15 315 1.6 3.2 0.00 1.09 0.00 91 1011.6
20260510000544 15 0.0 0.0 0.00 1.09 0.00 90 1011.7
20260509235536 15 315 0.0 3.2 0.00 1.09 0.00 91 1011.8
20260509234549 15 315 0.0 3.2 0.00 1.09 0.00 90 1011.8
20260509233521 15 315 0.0 3.2 0.00 1.09 0.00 90 1011.8
20260509232614 15 315 1.6 4.8 0.00 1.09 0.00 90 1011.8
20260509231606 15 270 0.0 3.2 0.00 1.09 0.00 90 1011.8
20260509230558 15 270 0.0 3.2 0.00 1.09 0.00 90 1011.8
20260509225551 15 0.0 1.6 0.00 1.09 0.00 89 1011.8
20260509224543 15 0.0 0.0 0.00 1.09 0.00 89 1011.8
20260509223535 16 225 0.0 3.2 0.00 1.09 0.00 89 1012.0
20260509222528 16 225 0.0 3.2 0.00 1.09 0.00 88 1012.0
20260509221520 16 225 0.0 3.2 0.00 1.09 0.00 88 1012.2
20260509220633 16 225 1.6 3.2 0.00 1.09 0.00 88 1012.2
20260509215605 16 225 1.6 3.2 0.00 1.09 1.09 88 1012.2
20260509214558 16 225 1.6 3.2 0.00 1.09 1.09 87 1012.1
20260509213549 16 225 3.2 4.8 0.00 1.09 1.09 85 1012.0
20260509212541 15 0.0 1.6 0.00 1.09 1.09 84 1012.0